sat.trackr.live / text

‹ back to catalog

STARLINK-37134

NORAD 68281 · 2026-055V

PAYLOAD ACTIVE UNKNOWN

§ Identity

Operator
Country
US
Launch date
2026-03-19
Launch site
AFETR
Launch vehicle
Mass (kg)
RCS (m²)

Purposes: comms

External: N2YO · Heavens-Above · Gunter

§ Orbital elements

Epoch: 2026-09-20T00:35:03.377760Z

Period
93.85 min
Inclination
53.1572°
Eccentricity
0.0001589
Mean motion
15.34413602 rev/d
Perigee alt
461.6 km
Apogee alt
463.7 km
Semi-major
6,840.8 km
B*
3.1481e-4
RAAN
133.8225°
Arg perigee
206.1411°
Mean anomaly
153.9512°
Rev number
2,972

§ Raw data

STARLINK-371341 68281U 26055V   26263.02434465  .00010279  00000+0  31481-3 0  99982 68281  53.1572 133.8225 0001589 206.1411 153.9512 15.34413602 29727

JSON: /api/v1/satellites/68281 · /tle

For live sub-satellite position, see the globe view (requires WebGL).

§ Visibility from observer

Set your observer location to see the next 7 days of passes ≥ 10°. The values pass through the URL so the page stays shareable.

No JS? Fill the form by hand. The geolocation button needs JavaScript.